TITAN 3C TRANSTAGE R/B, 3432

Orbit data source: Space-Track

TITAN 3C TRANSTAGE R/B, 3432 is space debris in GEO originally from a launch on Thu, 26 Sep 1968 UTC launched from the Air Force Eastern Test Range (AFETR). Debris objects in space refer to the collection of defunct objects orbiting the Earth. Examples of debris include non-operational satellites, rocket bodies, and fragments generated from explosions, collisions, or faulty payload assembly.

Not visible in the next 10 days
Identifier
3432, 1968-081E
Orbit
GEO
Country
Flag of USUS
Related business
Manufacturer
Martin Marietta
Mission
Spacecraft
Bus & Motor
TRANSTAGE, Unknown motor
Mass
~1,950 kg wet, ~1,950 kg dry
Launch date (UTC)
1968-09-26 (58 years ago)
Launch vehicle
Unknown
Launch site
Air Force Eastern Test Range (AFETR)
Object type
Payload
Rocket body
Debris
Shape & HBR
Unknown
Radar Cross Section
Large (>1 m²)

Expand to show TLE details & history
Last TLE update: 8 hours ago

TLE from 8 hours ago
0 TITAN 3C TRANSTAGE R/B
1 03432U 68081E   26105.22682674  .00000083  00000-0  00000-0 0  9997
2 03432   1.8352  48.8579 0094675 277.7427 311.4921  1.01515523121346
Epoch: 2026-04-15T05:26Z
TLE epoch observation values (Epoch: 2026-04-15T05:26:37.830Z)
Latitude
-1.35374°
Longitude
-7.79778°
Altitude
35,182.906 km
Speed
3.106 km/s
True Right ascension
18h 29m 00s
True Declination
-1° 21' 08"
Sunlit
Object was in daylight at epoch
Visualization orbit readout
Latitude
Unknown
Longitude
Unknown
Altitude
Unknown
Speed
Unknown
Apparent Right ascension
Unknown
Apparent Declination
Unknown
Sunlit
N/A
Visualization observer readout
Local Sidereal Time
20:22:23
Azimuth
Unknown
Elevation
Unknown
Doppler factor
Unknown
Orbital elements
Apogee altitude
35,838.51 km
Perigee altitude
35,046.634 km
Semi-major axis
41,820.709 km
Eccentricity
0.00947
Inclination
1.8352°
RAAN
48.8579°
Arg. of periapsis
277.7427°
True anomaly
310.67307°
Mean anomaly
311.4921°
Eccentric anomaly
311.08323°
Mean motion
0.25378 °/min
Orbital period
1,418.56 mins
BSTAR
0
Loading maneuver chart data...
Computing Atmospheric mass density...

Documentation

Showing up to 5 results
|